| time (UTC) | temp F | wind direction | speed MPH | gust MPH | rain 1hr in | rain 24hr in | rain mn in | humidity % | barometer mb |
| 20260506155215 | 65 | 160 | 0.0 | 1.0 | 0.05 | 0.02 | 0.02 | 81 | 1011.3 |
| 20260506153317 | 66 | 114 | 0.0 | 1.0 | 0.00 | 0.00 | 0.00 | 77 | 1011.4 |
| 20260506152814 | 66 | 164 | 1.0 | 2.0 | 0.00 | 0.00 | 0.00 | 76 | 1011.4 |
| 20260506152311 | 66 | 94 | 0.0 | 1.0 | 0.00 | 0.00 | 0.00 | 76 | 1011.2 |
| 20260506151810 | 66 | 167 | 3.0 | 3.0 | 0.00 | 0.00 | 0.00 | 75 | 1011.5 |
| 20260506151306 | 67 | 236 | 2.0 | 3.0 | 0.00 | 0.00 | 0.00 | 74 | 1011.4 |
| 20260506150803 | 67 | 160 | 2.0 | 3.0 | 0.00 | 0.00 | 0.00 | 73 | 1011.4 |
| 20260506150304 | 68 | 129 | 1.0 | 1.0 | 0.00 | 0.00 | 0.00 | 73 | 1011.3 |
| 20260506145757 | 68 | 213 | 2.0 | 4.0 | 0.00 | 0.00 | 0.00 | 72 | 1011.5 |
| 20260506145253 | 68 | 150 | 2.0 | 3.0 | 0.00 | 0.00 | 0.00 | 72 | 1011.4 |
| 20260506144751 | 68 | 178 | 2.0 | 2.0 | 0.00 | 0.00 | 0.00 | 72 | 1011.4 |
| 20260506144248 | 68 | 170 | 3.0 | 4.0 | 0.00 | 0.00 | 0.00 | 72 | 1011.5 |
| 20260506143745 | 68 | 160 | 3.0 | 4.0 | 0.00 | 0.00 | 0.00 | 71 | 1011.6 |
| 20260506143242 | 68 | 178 | 4.0 | 6.0 | 0.00 | 0.00 | 0.00 | 71 | 1011.6 |
| 20260506142741 | 68 | 172 | 2.0 | 2.0 | 0.00 | 0.00 | 0.00 | 71 | 1011.7 |
| 20260506142239 | 68 | 126 | 0.0 | 0.0 | 0.00 | 0.00 | 0.00 | 71 | 1011.6 |
| 20260506141736 | 68 | 166 | 4.0 | 4.0 | 0.00 | 0.00 | 0.00 | 71 | 1011.8 |
| 20260506141235 | 67 | 141 | 1.0 | 1.0 | 0.00 | 0.00 | 0.00 | 72 | 1012.0 |
| 20260506140732 | 67 | 161 | 4.0 | 8.0 | 0.00 | 0.00 | 0.00 | 72 | 1012.1 |
| 20260506140229 | 67 | 76 | 1.0 | 2.0 | 0.00 | 0.00 | 0.00 | 72 | 1011.9 |
| 20260506135725 | 67 | 244 | 4.0 | 7.0 | 0.00 | 0.00 | 0.00 | 72 | 1011.9 |
| 20260506135222 | 67 | 169 | 3.0 | 4.0 | 0.00 | 0.00 | 0.00 | 72 | 1011.7 |
| 20260506134719 | 67 | 171 | 4.0 | 4.0 | 0.00 | 0.00 | 0.00 | 72 | 1011.7 |
| 20260506134215 | 67 | 144 | 5.0 | 7.0 | 0.00 | 0.00 | 0.00 | 72 | 1011.6 |
| 20260506133712 | 67 | 161 | 9.0 | 11.0 | 0.00 | 0.00 | 0.00 | 72 | 1011.7 |
| 20260506133208 | 67 | 158 | 3.0 | 4.0 | 0.00 | 0.00 | 0.00 | 72 | 1011.6 |
| 20260506132706 | 67 | 182 | 7.0 | 9.0 | 0.00 | 0.00 | 0.00 | 73 | 1011.4 |
| 20260506132203 | 67 | 77 | 3.0 | 4.0 | 0.00 | 0.00 | 0.00 | 73 | 1011.4 |
| 20260506131701 | 66 | 145 | 8.0 | 10.0 | 0.00 | 0.00 | 0.00 | 73 | 1011.4 |
| 20260506131156 | 66 | 174 | 8.0 | 9.0 | 0.00 | 0.00 | 0.00 | 73 | 1011.2 |
| 20260506130653 | 66 | 173 | 4.0 | 4.0 | 0.00 | 0.00 | 0.00 | 73 | 1011.3 |
| 20260506130151 | 66 | 168 | 5.0 | 6.0 | 0.00 | 0.00 | 0.00 | 73 | 1011.2 |
| 20260506125649 | 66 | 178 | 6.0 | 7.0 | 0.00 | 0.00 | 0.00 | 73 | 1011.5 |
| 20260506125146 | 66 | 148 | 5.0 | 7.0 | 0.00 | 0.00 | 0.00 | 74 | 1011.3 |
| 20260506124645 | 66 | 181 | 5.0 | 6.0 | 0.00 | 0.00 | 0.00 | 74 | 1011.5 |
| 20260506124142 | 66 | 161 | 5.0 | 7.0 | 0.00 | 0.00 | 0.00 | 74 | 1011.6 |
| 20260506123639 | 66 | 163 | 3.0 | 6.0 | 0.00 | 0.00 | 0.00 | 74 | 1011.6 |
| 20260506123138 | 66 | 154 | 5.0 | 7.0 | 0.00 | 0.00 | 0.00 | 74 | 1011.7 |
| 20260506122634 | 66 | 191 | 5.0 | 7.0 | 0.00 | 0.00 | 0.00 | 74 | 1011.6 |
| 20260506122132 | 66 | 139 | 3.0 | 3.0 | 0.00 | 0.00 | 0.00 | 74 | 1011.7 |
| 20260506121629 | 66 | 179 | 7.0 | 8.0 | 0.00 | 0.00 | 0.00 | 74 | 1011.5 |
| 20260506121125 | 66 | 126 | 4.0 | 6.0 | 0.00 | 0.00 | 0.00 | 74 | 1011.6 |
| 20260506120624 | 65 | 186 | 4.0 | 6.0 | 0.00 | 0.00 | 0.00 | 75 | 1011.7 |
| 20260506120121 | 65 | 158 | 6.0 | 7.0 | 0.00 | 0.00 | 0.00 | 74 | 1012.1 |
| 20260506115619 | 65 | 163 | 3.0 | 3.0 | 0.00 | 0.00 | 0.00 | 74 | 1012.0 |
| 20260506115117 | 65 | 200 | 8.0 | 9.0 | 0.00 | 0.00 | 0.00 | 74 | 1011.6 |
| 20260506114614 | 65 | 166 | 5.0 | 6.0 | 0.00 | 0.00 | 0.00 | 74 | 1011.6 |
| 20260506114112 | 65 | 153 | 6.0 | 7.0 | 0.00 | 0.00 | 0.00 | 74 | 1011.6 |
| 20260506113610 | 65 | 173 | 6.0 | 7.0 | 0.00 | 0.00 | 0.00 | 75 | 1011.4 |
| 20260506113107 | 65 | 166 | 3.0 | 3.0 | 0.00 | 0.00 | 0.00 | 75 | 1011.6 |
| 20260506112603 | 65 | 173 | 6.0 | 7.0 | 0.00 | 0.00 | 0.00 | 75 | 1011.5 |
| 20260506112101 | 65 | 108 | 1.0 | 1.0 | 0.00 | 0.00 | 0.00 | 75 | 1011.5 |
| 20260506111558 | 65 | 151 | 6.0 | 8.0 | 0.00 | 0.00 | 0.00 | 74 | 1011.4 |
| 20260506111055 | 65 | 137 | 3.0 | 3.0 | 0.00 | 0.00 | 0.00 | 75 | 1011.5 |
| 20260506110553 | 64 | 134 | 8.0 | 9.0 | 0.00 | 0.00 | 0.00 | 75 | 1011.3 |
| 20260506110050 | 64 | 158 | 9.0 | 10.0 | 0.00 | 0.00 | 0.00 | 75 | 1011.5 |
| 20260506105546 | 64 | 151 | 4.0 | 6.0 | 0.00 | 0.00 | 0.00 | 75 | 1011.7 |
| 20260506105044 | 64 | 188 | 6.0 | 7.0 | 0.00 | 0.00 | 0.00 | 75 | 1011.7 |
| 20260506104542 | 64 | 154 | 3.0 | 4.0 | 0.00 | 0.00 | 0.00 | 74 | 1011.6 |
| 20260506104039 | 64 | 177 | 4.0 | 6.0 | 0.00 | 0.00 | 0.00 | 74 | 1011.4 |
| 20260506103536 | 64 | 144 | 5.0 | 7.0 | 0.00 | 0.00 | 0.00 | 74 | 1011.3 |
| 20260506103033 | 64 | 164 | 7.0 | 9.0 | 0.00 | 0.00 | 0.00 | 74 | 1011.4 |
| 20260506102531 | 64 | 163 | 4.0 | 7.0 | 0.00 | 0.00 | 0.00 | 73 | 1011.5 |
| 20260506102028 | 64 | 155 | 4.0 | 4.0 | 0.00 | 0.00 | 0.00 | 73 | 1011.6 |
| 20260506101525 | 64 | 179 | 5.0 | 7.0 | 0.00 | 0.00 | 0.00 | 73 | 1011.4 |
| 20260506101022 | 64 | 140 | 3.0 | 3.0 | 0.00 | 0.00 | 0.00 | 72 | 1011.2 |
| 20260506100520 | 64 | 172 | 4.0 | 4.0 | 0.00 | 0.00 | 0.00 | 72 | 1011.2 |
| 20260506100018 | 64 | 154 | 4.0 | 4.0 | 0.00 | 0.00 | 0.00 | 71 | 1011.1 |
| 20260506095517 | 65 | 148 | 4.0 | 4.0 | 0.00 | 0.00 | 0.00 | 71 | 1011.2 |
| 20260506095012 | 65 | 173 | 4.0 | 6.0 | 0.00 | 0.00 | 0.00 | 71 | 1011.3 |
| 20260506094510 | 65 | 108 | 2.0 | 3.0 | 0.00 | 0.00 | 0.00 | 70 | 1011.3 |
| 20260506094008 | 65 | 196 | 6.0 | 8.0 | 0.00 | 0.00 | 0.00 | 70 | 1011.3 |
| 20260506093506 | 65 | 225 | 2.0 | 2.0 | 0.00 | 0.00 | 0.00 | 69 | 1011.2 |
| 20260506093004 | 66 | 148 | 2.0 | 3.0 | 0.00 | 0.00 | 0.00 | 69 | 1011.2 |
| 20260506092501 | 66 | 193 | 2.0 | 4.0 | 0.00 | 0.00 | 0.00 | 69 | 1011.0 |
| 20260506091957 | 66 | 147 | 3.0 | 3.0 | 0.00 | 0.00 | 0.00 | 68 | 1011.0 |
| 20260506091456 | 66 | 178 | 5.0 | 7.0 | 0.00 | 0.00 | 0.00 | 68 | 1011.0 |
| 20260506090953 | 66 | 173 | 6.0 | 7.0 | 0.00 | 0.00 | 0.00 | 68 | 1011.0 |
| 20260506090451 | 66 | 175 | 6.0 | 7.0 | 0.00 | 0.00 | 0.00 | 67 | 1011.2 |
| 20260506085946 | 66 | 175 | 4.0 | 6.0 | 0.00 | 0.00 | 0.00 | 67 | 1011.2 |
| 20260506085444 | 66 | 126 | 1.0 | 1.0 | 0.00 | 0.00 | 0.00 | 67 | 1011.3 |
| 20260506084940 | 66 | 152 | 5.0 | 6.0 | 0.00 | 0.00 | 0.00 | 66 | 1011.2 |
| 20260506084437 | 66 | 145 | 6.0 | 8.0 | 0.00 | 0.00 | 0.00 | 66 | 1011.3 |
| 20260506083933 | 66 | 180 | 6.0 | 8.0 | 0.00 | 0.00 | 0.00 | 65 | 1011.3 |
| 20260506083430 | 66 | 160 | 5.0 | 7.0 | 0.00 | 0.00 | 0.00 | 65 | 1011.4 |
| 20260506082928 | 66 | 160 | 3.0 | 4.0 | 0.00 | 0.00 | 0.00 | 65 | 1011.3 |
| 20260506082425 | 67 | 149 | 3.0 | 4.0 | 0.00 | 0.00 | 0.00 | 65 | 1011.4 |
| 20260506081920 | 66 | 137 | 5.0 | 6.0 | 0.00 | 0.00 | 0.00 | 65 | 1011.4 |
| 20260506081419 | 67 | 163 | 2.0 | 2.0 | 0.00 | 0.00 | 0.00 | 64 | 1011.3 |
| 20260506080916 | 67 | 157 | 3.0 | 3.0 | 0.00 | 0.00 | 0.00 | 64 | 1011.5 |
| 20260506080412 | 67 | 202 | 3.0 | 4.0 | 0.00 | 0.00 | 0.00 | 64 | 1011.4 |
| 20260506073356 | 67 | 143 | 2.0 | 3.0 | 0.00 | 0.00 | 0.00 | 62 | 1011.5 |
| 20260506072853 | 67 | 166 | 3.0 | 3.0 | 0.00 | 0.00 | 0.00 | 61 | 1011.5 |
| 20260506072351 | 67 | 144 | 2.0 | 3.0 | 0.00 | 0.00 | 0.00 | 61 | 1011.3 |
| 20260506071848 | 68 | 176 | 2.0 | 2.0 | 0.00 | 0.00 | 0.00 | 60 | 1011.3 |
| 20260506071346 | 68 | 178 | 3.0 | 4.0 | 0.00 | 0.00 | 0.00 | 60 | 1011.5 |
| 20260506070843 | 68 | 140 | 1.0 | 1.0 | 0.00 | 0.00 | 0.00 | 60 | 1011.5 |
| 20260506070340 | 68 | 126 | 0.0 | 0.0 | 0.00 | 0.00 | 0.00 | 60 | 1011.6 |
| 20260506062317 | 68 | 127 | 1.0 | 1.0 | 0.00 | 0.00 | 0.00 | 59 | 1011.8 |
| 20260506061813 | 69 | 163 | 1.0 | 1.0 | 0.00 | 0.00 | 0.00 | 58 | 1011.7 |
| 20260506061310 | 69 | 129 | 2.0 | 2.0 | 0.00 | 0.00 | 0.00 | 58 | 1011.6 |
| 20260506060808 | 69 | 153 | 1.0 | 2.0 | 0.00 | 0.00 | 0.00 | 58 | 1011.7 |
| 20260506060306 | 69 | 158 | 3.0 | 6.0 | 0.00 | 0.00 | 0.00 | 58 | 1011.6 |
| 20260506051237 | 70 | 175 | 4.0 | 6.0 | 0.00 | 0.00 | 0.00 | 55 | 1012.0 |
| 20260506050735 | 70 | 169 | 3.0 | 3.0 | 0.00 | 0.00 | 0.00 | 55 | 1012.1 |
| 20260506050232 | 70 | 162 | 1.0 | 2.0 | 0.00 | 0.00 | 0.00 | 54 | 1012.1 |
| 20260506044723 | 70 | 174 | 7.0 | 9.0 | 0.00 | 0.00 | 0.00 | 54 | 1012.1 |
| 20260506044220 | 70 | 131 | 0.0 | 1.0 | 0.00 | 0.00 | 0.00 | 54 | 1012.1 |
| 20260506043718 | 71 | 150 | 4.0 | 6.0 | 0.00 | 0.00 | 0.00 | 53 | 1012.1 |
| 20260506043215 | 71 | 160 | 5.0 | 6.0 | 0.00 | 0.00 | 0.00 | 53 | 1012.2 |
| 20260506042714 | 71 | 157 | 4.0 | 6.0 | 0.00 | 0.00 | 0.00 | 52 | 1012.2 |
| 20260506042212 | 71 | 168 | 6.0 | 7.0 | 0.00 | 0.00 | 0.00 | 52 | 1012.0 |
| 20260506041710 | 71 | 158 | 7.0 | 8.0 | 0.00 | 0.00 | 0.00 | 52 | 1012.0 |
| 20260506041207 | 71 | 151 | 2.0 | 4.0 | 0.00 | 0.00 | 0.00 | 52 | 1011.9 |
| 20260506040704 | 71 | 208 | 4.0 | 7.0 | 0.00 | 0.00 | 0.00 | 52 | 1012.0 |
| 20260506040201 | 70 | 158 | 3.0 | 4.0 | 0.00 | 0.00 | 0.00 | 53 | 1012.0 |
| 20260506035658 | 70 | 167 | 2.0 | 3.0 | 0.00 | 0.00 | 0.00 | 53 | 1012.0 |
| 20260506035155 | 70 | 159 | 4.0 | 6.0 | 0.00 | 0.00 | 0.00 | 53 | 1012.0 |
| 20260506034651 | 70 | 174 | 6.0 | 7.0 | 0.00 | 0.00 | 0.00 | 53 | 1012.0 |
| 20260506034149 | 70 | 137 | 5.0 | 7.0 | 0.00 | 0.00 | 0.00 | 52 | 1011.9 |
| 20260506033646 | 70 | 163 | 4.0 | 6.0 | 0.00 | 0.00 | 0.00 | 52 | 1012.0 |
| 20260506033143 | 71 | 175 | 4.0 | 6.0 | 0.00 | 0.00 | 0.00 | 51 | 1012.2 |
| 20260506032640 | 71 | 179 | 4.0 | 6.0 | 0.00 | 0.00 | 0.00 | 50 | 1011.9 |
| 20260506032137 | 72 | 143 | 3.0 | 4.0 | 0.00 | 0.00 | 0.00 | 49 | 1011.9 |
| 20260506031634 | 72 | 180 | 6.0 | 8.0 | 0.00 | 0.00 | 0.00 | 48 | 1011.7 |
| 20260506031130 | 73 | 187 | 4.0 | 4.0 | 0.00 | 0.00 | 0.00 | 46 | 1011.8 |
| 20260506030629 | 74 | 178 | 4.0 | 6.0 | 0.00 | 0.00 | 0.00 | 45 | 1012.0 |
| 20260506030126 | 74 | 108 | 1.0 | 1.0 | 0.00 | 0.00 | 0.00 | 43 | 1011.6 |
| 20260506025623 | 75 | 177 | 5.0 | 7.0 | 0.00 | 0.00 | 0.00 | 43 | 1011.8 |
| 20260506025119 | 75 | 166 | 4.0 | 4.0 | 0.00 | 0.00 | 0.00 | 42 | 1011.7 |
| 20260506024617 | 75 | 150 | 3.0 | 3.0 | 0.00 | 0.00 | 0.00 | 42 | 1011.7 |
| 20260506024112 | 76 | 215 | 5.0 | 7.0 | 0.00 | 0.00 | 0.00 | 42 | 1011.6 |
| 20260506023609 | 75 | 247 | 2.0 | 2.0 | 0.00 | 0.00 | 0.00 | 42 | 1011.8 |
| 20260506023106 | 76 | 212 | 3.0 | 4.0 | 0.00 | 0.00 | 0.00 | 42 | 1011.6 |
| 20260506022604 | 75 | 254 | 2.0 | 3.0 | 0.00 | 0.00 | 0.00 | 41 | 1011.4 |
| 20260506022101 | 76 | 149 | 3.0 | 3.0 | 0.00 | 0.00 | 0.00 | 41 | 1011.6 |
| 20260506021559 | 76 | 107 | 5.0 | 8.0 | 0.00 | 0.00 | 0.00 | 40 | 1011.4 |
| 20260506021055 | 76 | 171 | 2.0 | 3.0 | 0.00 | 0.00 | 0.00 | 39 | 1011.4 |
| 20260506020553 | 76 | 129 | 1.0 | 1.0 | 0.00 | 0.00 | 0.00 | 38 | 1011.4 |
| 20260506020050 | 76 | 221 | 3.0 | 4.0 | 0.00 | 0.00 | 0.00 | 38 | 1011.4 |
| 20260506015548 | 76 | 146 | 1.0 | 1.0 | 0.00 | 0.00 | 0.00 | 38 | 1011.5 |
| 20260506015044 | 76 | 172 | 7.0 | 10.0 | 0.00 | 0.00 | 0.00 | 38 | 1011.5 |
| 20260506014542 | 77 | 141 | 4.0 | 4.0 | 0.00 | 0.00 | 0.00 | 37 | 1011.1 |
| 20260506014037 | 77 | 120 | 3.0 | 3.0 | 0.00 | 0.00 | 0.00 | 37 | 1011.4 |
| 20260506013536 | 77 | 145 | 4.0 | 6.0 | 0.00 | 0.00 | 0.00 | 37 | 1011.2 |
| 20260506013032 | 77 | 117 | 3.0 | 3.0 | 0.00 | 0.00 | 0.00 | 37 | 1011.2 |
| 20260506012528 | 77 | 202 | 4.0 | 6.0 | 0.00 | 0.00 | 0.00 | 37 | 1011.2 |
| 20260506012025 | 77 | 109 | 0.0 | 1.0 | 0.00 | 0.00 | 0.00 | 37 | 1011.2 |
| 20260506011523 | 77 | 199 | 6.0 | 8.0 | 0.00 | 0.00 | 0.00 | 36 | 1011.0 |
| 20260506011019 | 77 | 157 | 3.0 | 3.0 | 0.00 | 0.00 | 0.00 | 36 | 1011.1 |
| 20260506010514 | 77 | 144 | 4.0 | 7.0 | 0.00 | 0.00 | 0.00 | 36 | 1011.0 |
| 20260506010009 | 77 | 156 | 2.0 | 2.0 | 0.00 | 0.00 | 0.00 | 36 | 1010.9 |
| 20260506005507 | 77 | 145 | 3.0 | 3.0 | 0.00 | 0.00 | 0.00 | 35 | 1011.0 |
| 20260506005002 | 77 | 182 | 6.0 | 7.0 | 0.00 | 0.00 | 0.00 | 36 | 1010.7 |
| 20260506004500 | 77 | 156 | 4.0 | 6.0 | 0.00 | 0.00 | 0.00 | 36 | 1010.8 |
| 20260506003956 | 77 | 173 | 2.0 | 2.0 | 0.00 | 0.00 | 0.00 | 36 | 1010.8 |
| 20260506003453 | 77 | 136 | 1.0 | 2.0 | 0.00 | 0.00 | 0.00 | 36 | 1010.6 |
| 20260506002949 | 77 | 124 | 1.0 | 1.0 | 0.00 | 0.00 | 0.00 | 37 | 1010.7 |
| 20260506002445 | 77 | 183 | 5.0 | 6.0 | 0.00 | 0.00 | 0.00 | 36 | 1010.5 |
| 20260506001941 | 77 | 171 | 4.0 | 4.0 | 0.00 | 0.00 | 0.00 | 36 | 1010.5 |
| 20260506001438 | 77 | 192 | 5.0 | 7.0 | 0.00 | 0.00 | 0.00 | 36 | 1010.6 |
| 20260506000935 | 77 | 147 | 3.0 | 3.0 | 0.00 | 0.00 | 0.00 | 36 | 1010.5 |
| 20260506000433 | 77 | 228 | 5.0 | 6.0 | 0.00 | 0.00 | 0.00 | 36 | 1010.6 |
| 20260505235929 | 77 | 199 | 7.0 | 11.0 | 0.00 | 0.00 | 0.00 | 36 | 1010.4 |
| 20260505235427 | 78 | 143 | 1.0 | 1.0 | 0.00 | 0.00 | 0.00 | 36 | 1010.3 |
| 20260505234923 | 78 | 224 | 2.0 | 2.0 | 0.00 | 0.00 | 0.00 | 36 | 1010.2 |
| 20260505234422 | 78 | 144 | 4.0 | 6.0 | 0.00 | 0.00 | 0.00 | 35 | 1010.2 |
| 20260505233918 | 78 | 171 | 5.0 | 7.0 | 0.00 | 0.00 | 0.00 | 35 | 1010.2 |
| 20260505233416 | 79 | 277 | 5.0 | 7.0 | 0.00 | 0.00 | 0.00 | 35 | 1009.9 |
| 20260505232913 | 79 | 227 | 6.0 | 7.0 | 0.00 | 0.00 | 0.00 | 34 | 1010.1 |
| 20260505232411 | 79 | 142 | 5.0 | 6.0 | 0.00 | 0.00 | 0.00 | 34 | 1009.9 |
| 20260505231907 | 79 | 202 | 4.0 | 6.0 | 0.00 | 0.00 | 0.00 | 34 | 1009.8 |
| 20260505231405 | 79 | 164 | 2.0 | 2.0 | 0.00 | 0.00 | 0.00 | 34 | 1009.9 |
| 20260505230903 | 79 | 201 | 2.0 | 4.0 | 0.00 | 0.00 | 0.00 | 34 | 1009.7 |
| 20260505230400 | 79 | 247 | 5.0 | 7.0 | 0.00 | 0.00 | 0.00 | 34 | 1009.8 |
| 20260505225856 | 80 | 307 | 2.0 | 2.0 | 0.00 | 0.00 | 0.00 | 34 | 1009.9 |
| 20260505225354 | 80 | 254 | 6.0 | 9.0 | 0.00 | 0.00 | 0.00 | 33 | 1009.5 |
| 20260505224849 | 80 | 232 | 3.0 | 4.0 | 0.00 | 0.00 | 0.00 | 34 | 1009.5 |
| 20260505224347 | 80 | 181 | 2.0 | 3.0 | 0.00 | 0.00 | 0.00 | 35 | 1009.3 |
| 20260505223844 | 80 | 357 | 3.0 | 3.0 | 0.00 | 0.00 | 0.00 | 34 | 1009.3 |
| 20260505223341 | 80 | 238 | 4.0 | 4.0 | 0.00 | 0.00 | 0.00 | 34 | 1009.5 |
| 20260505222836 | 80 | 216 | 4.0 | 4.0 | 0.00 | 0.00 | 0.00 | 34 | 1009.3 |
| 20260505222333 | 80 | 234 | 6.0 | 9.0 | 0.00 | 0.00 | 0.00 | 33 | 1009.2 |
| 20260505221830 | 80 | 176 | 6.0 | 8.0 | 0.00 | 0.00 | 0.00 | 34 | 1009.1 |
| 20260505221327 | 80 | 232 | 3.0 | 3.0 | 0.00 | 0.00 | 0.00 | 35 | 1009.2 |
| 20260505220824 | 80 | 189 | 3.0 | 3.0 | 0.00 | 0.00 | 0.00 | 34 | 1009.0 |
| 20260505220321 | 80 | 149 | 5.0 | 7.0 | 0.00 | 0.00 | 0.00 | 34 | 1009.0 |
| 20260505215819 | 80 | 143 | 4.0 | 6.0 | 0.00 | 0.00 | 0.00 | 35 | 1008.8 |
| 20260505215316 | 81 | 256 | 7.0 | 11.0 | 0.00 | 0.00 | 0.00 | 34 | 1008.9 |
| 20260505214814 | 81 | 214 | 7.0 | 10.0 | 0.00 | 0.00 | 0.00 | 34 | 1008.9 |
| 20260505214311 | 82 | 168 | 3.0 | 4.0 | 0.00 | 0.00 | 0.00 | 34 | 1008.8 |
| 20260505213808 | 82 | 259 | 4.0 | 6.0 | 0.00 | 0.00 | 0.00 | 34 | 1008.9 |
| 20260505213306 | 81 | 174 | 2.0 | 3.0 | 0.00 | 0.00 | 0.00 | 34 | 1008.8 |
| 20260505212802 | 82 | 132 | 4.0 | 7.0 | 0.00 | 0.00 | 0.00 | 34 | 1009.0 |
| 20260505212259 | 82 | 141 | 3.0 | 3.0 | 0.00 | 0.00 | 0.00 | 34 | 1008.9 |
| 20260505211755 | 82 | 172 | 7.0 | 10.0 | 0.00 | 0.00 | 0.00 | 34 | 1008.9 |
| 20260505211253 | 83 | 198 | 6.0 | 8.0 | 0.00 | 0.00 | 0.00 | 33 | 1008.8 |
| 20260505210749 | 83 | 270 | 8.0 | 15.0 | 0.00 | 0.00 | 0.00 | 32 | 1008.6 |
| 20260505210246 | 83 | 178 | 6.0 | 8.0 | 0.00 | 0.00 | 0.00 | 32 | 1008.5 |
| 20260505205743 | 84 | 163 | 4.0 | 4.0 | 0.00 | 0.00 | 0.00 | 32 | 1008.4 |
| 20260505205242 | 84 | 219 | 7.0 | 8.0 | 0.00 | 0.00 | 0.00 | 32 | 1008.7 |
| 20260505204738 | 84 | 261 | 6.0 | 8.0 | 0.00 | 0.00 | 0.00 | 32 | 1008.3 |
| 20260505204236 | 84 | 241 | 3.0 | 6.0 | 0.00 | 0.00 | 0.00 | 33 | 1008.6 |
| 20260505203732 | 84 | 184 | 11.0 | 15.0 | 0.00 | 0.00 | 0.00 | 32 | 1008.5 |
| 20260505203229 | 84 | 154 | 8.0 | 11.0 | 0.00 | 0.00 | 0.00 | 33 | 1008.5 |
| 20260505202725 | 83 | 83 | 3.0 | 4.0 | 0.00 | 0.00 | 0.00 | 35 | 1008.6 |
| 20260505202222 | 84 | 234 | 9.0 | 13.0 | 0.00 | 0.00 | 0.00 | 33 | 1008.7 |
| 20260505201718 | 83 | 149 | 2.0 | 3.0 | 0.00 | 0.00 | 0.00 | 34 | 1008.7 |
| 20260505201216 | 83 | 220 | 7.0 | 8.0 | 0.00 | 0.00 | 0.00 | 32 | 1009.2 |
| 20260505200714 | 82 | 256 | 14.0 | 15.0 | 0.00 | 0.00 | 0.00 | 33 | 1009.0 |
| 20260505200211 | 82 | 164 | 6.0 | 10.0 | 0.00 | 0.00 | 0.00 | 34 | 1009.0 |
| 20260505195706 | 83 | 209 | 6.0 | 7.0 | 0.00 | 0.00 | 0.00 | 34 | 1009.0 |
| 20260505195204 | 82 | 237 | 10.0 | 11.0 | 0.00 | 0.00 | 0.00 | 35 | 1008.9 |
| 20260505194701 | 83 | 168 | 5.0 | 7.0 | 0.00 | 0.00 | 0.00 | 34 | 1009.0 |
| 20260505194157 | 82 | 160 | 13.0 | 17.0 | 0.00 | 0.00 | 0.00 | 35 | 1009.2 |
| 20260505193654 | 83 | 187 | 6.0 | 8.0 | 0.00 | 0.00 | 0.00 | 36 | 1009.3 |
| 20260505193151 | 83 | 227 | 5.0 | 7.0 | 0.00 | 0.00 | 0.00 | 37 | 1009.3 |
| 20260505192650 | 84 | 155 | 8.0 | 11.0 | 0.00 | 0.00 | 0.00 | 36 | 1009.5 |
| 20260505192147 | 84 | 186 | 7.0 | 8.0 | 0.00 | 0.00 | 0.00 | 36 | 1009.3 |
| 20260505191645 | 84 | 219 | 6.0 | 8.0 | 0.00 | 0.00 | 0.00 | 36 | 1009.2 |
| 20260505191143 | 82 | 264 | 7.0 | 11.0 | 0.00 | 0.00 | 0.00 | 37 | 1009.4 |
| 20260505190639 | 83 | 275 | 9.0 | 15.0 | 0.00 | 0.00 | 0.00 | 35 | 1009.7 |
| 20260505190138 | 84 | 253 | 9.0 | 13.0 | 0.00 | 0.00 | 0.00 | 35 | 1009.6 |
| 20260505185635 | 84 | 262 | 10.0 | 13.0 | 0.00 | 0.00 | 0.00 | 35 | 1009.6 |
| 20260505185131 | 83 | 182 | 6.0 | 10.0 | 0.00 | 0.00 | 0.00 | 37 | 1009.5 |
| 20260505184628 | 83 | 209 | 8.0 | 11.0 | 0.00 | 0.00 | 0.00 | 36 | 1009.7 |
| 20260505184125 | 82 | 229 | 13.0 | 15.0 | 0.00 | 0.00 | 0.00 | 36 | 1009.9 |
| 20260505183622 | 83 | 262 | 6.0 | 8.0 | 0.00 | 0.00 | 0.00 | 37 | 1009.9 |
| 20260505183120 | 83 | 194 | 6.0 | 9.0 | 0.00 | 0.00 | 0.00 | 36 | 1010.1 |
| 20260505182615 | 83 | 141 | 3.0 | 4.0 | 0.00 | 0.00 | 0.00 | 37 | 1010.1 |
| 20260505182112 | 82 | 189 | 4.0 | 6.0 | 0.00 | 0.00 | 0.00 | 38 | 1010.2 |
| 20260505181609 | 82 | 104 | 6.0 | 7.0 | 0.00 | 0.00 | 0.00 | 37 | 1010.3 |
| 20260505181107 | 82 | 246 | 6.0 | 8.0 | 0.00 | 0.00 | 0.00 | 37 | 1010.2 |
| 20260505180602 | 82 | 271 | 8.0 | 9.0 | 0.00 | 0.00 | 0.00 | 38 | 1010.0 |
| 20260505180100 | 82 | 232 | 10.0 | 11.0 | 0.00 | 0.00 | 0.00 | 37 | 1010.3 |
| 20260505175555 | 82 | 191 | 14.0 | 17.0 | 0.00 | 0.00 | 0.00 | 37 | 1010.3 |
| 20260505175052 | 82 | 219 | 17.0 | 25.0 | 0.00 | 0.00 | 0.00 | 36 | 1010.5 |
| 20260505174549 | 83 | 235 | 7.0 | 9.0 | 0.00 | 0.00 | 0.00 | 38 | 1010.3 |
| 20260505174045 | 82 | 256 | 6.0 | 10.0 | 0.00 | 0.00 | 0.00 | 39 | 1010.4 |
| 20260505173542 | 82 | 244 | 10.0 | 14.0 | 0.00 | 0.00 | 0.00 | 39 | 1010.5 |
| 20260505173039 | 81 | 239 | 8.0 | 14.0 | 0.00 | 0.00 | 0.00 | 41 | 1010.4 |
| 20260505172537 | 81 | 211 | 9.0 | 10.0 | 0.00 | 0.00 | 0.00 | 40 | 1010.5 |
| 20260505172033 | 80 | 278 | 12.0 | 15.0 | 0.00 | 0.00 | 0.00 | 39 | 1010.6 |
| 20260505171528 | 80 | 168 | 3.0 | 3.0 | 0.00 | 0.00 | 0.00 | 40 | 1010.6 |
| 20260505171025 | 81 | 285 | 5.0 | 7.0 | 0.00 | 0.00 | 0.00 | 40 | 1010.5 |
| 20260505170522 | 81 | 165 | 4.0 | 6.0 | 0.00 | 0.00 | 0.00 | 40 | 1010.8 |
| 20260505170018 | 80 | 248 | 7.0 | 9.0 | 0.00 | 0.00 | 0.00 | 39 | 1010.8 |
| 20260505165514 | 80 | 92 | 6.0 | 7.0 | 0.00 | 0.00 | 0.00 | 40 | 1010.7 |
| 20260505165009 | 80 | 163 | 4.0 | 7.0 | 0.00 | 0.00 | 0.00 | 39 | 1010.9 |
| 20260505164506 | 80 | 171 | 8.0 | 14.0 | 0.00 | 0.00 | 0.00 | 41 | 1011.1 |
| 20260505164004 | 80 | 130 | 2.0 | 2.0 | 0.00 | 0.00 | 0.00 | 42 | 1010.9 |
| 20260505163502 | 79 | 153 | 5.0 | 7.0 | 0.00 | 0.00 | 0.00 | 41 | 1011.2 |
| 20260505163002 | 80 | 196 | 4.0 | 4.0 | 0.00 | 0.00 | 0.00 | 41 | 1011.2 |
| 20260505162456 | 80 | 247 | 7.0 | 9.0 | 0.00 | 0.00 | 0.00 | 41 | 1011.3 |
| 20260505161953 | 80 | 203 | 4.0 | 6.0 | 0.00 | 0.00 | 0.00 | 40 | 1011.5 |
| 20260505161450 | 80 | 191 | 2.0 | 3.0 | 0.00 | 0.00 | 0.00 | 43 | 1011.4 |
| 20260505160947 | 79 | 256 | 6.0 | 8.0 | 0.00 | 0.00 | 0.00 | 43 | 1011.6 |
| 20260505160445 | 79 | 243 | 4.0 | 7.0 | 0.00 | 0.00 | 0.00 | 43 | 1011.9 |